Location: Possagno
(45.8500°N, 11.8667°E)
Time: 19:38:00
(UTC+00:00)

IRS-P3 - Pass Details

Date: 07 June 2020
Orbit: 813 x 820 km, 98.8° (Epoch: 05 July)

Event Time Altitude Azimuth Distance (km) Brightness Sun altitude
Rises 01:57:09 0° 13° (NNE) 3,351 8.6 -11.8°
Reaches altitude 10° 01:59:30 10° 12° (NNE) 2,414 7.7 -11.5°
Maximum altitude 02:04:50 79° 286° (WNW) 833 4.1 -10.9°
Enters shadow 02:09:52 11° 201° (SSW) 2,293 5.9 -10.3°
